{"data":{"norad_id":65055,"epoch":"2026-05-25T02:59:18.053664Z","epoch_age_seconds":58098,"freshness":"FRESH","line1":"1 65055U 25164A   26145.12451451  .00004082  00000+0  28531-3 0  9995","line2":"2 65055  41.1309  57.6761 0006655 211.3434 148.6984 15.06206068 44959","mean_motion":15.06206068,"eccentricity":0.0006655,"inclination_deg":41.1309,"raan_deg":57.6761,"arg_perigee_deg":211.3434,"mean_anomaly_deg":148.6984,"bstar":0.00028531,"rev_number":4495,"period_min":95.604448195597,"perigee_km":543.19678029658,"apogee_km":552.41521042341,"semimajor_km":6925.94299536,"source":"CELESTRAK","updated_at":"2026-05-25T13:38:12.840432Z"}}